Location: Observatoire
(46.1952°N, 5.3391°E)
Time: 07:00:09
(UTC+01:00)

Explorer 7 - Pass Details

Date: 21 February 2026
Orbit: 430 x 541 km, 50.2° (Epoch: 9 March)

Event Time Altitude Azimuth Distance (km) Brightness Sun altitude
Rises 16:10:59 0° 266° (W) 2,428 11.1 18.1°
Reaches altitude 10° 16:13:07 10° 272° (W) 1,573 10.1 17.8°
Maximum altitude 16:16:35 50° 349° (N) 595 7.0 17.3°
Drops below altitude 10° 16:20:10 10° 66° (ENE) 1,634 8.7 16.8°
Sets 16:22:25 0° 71° (ENE) 2,535 9.6 16.5°
